EW2631 Weather Reports


time (UTC)temp
C
wind
direction
speed
KPH
gust
KPH
rain 1hr
cm
rain 24hr
cm
rain mn
cm
humidity
%
barometer
mb
20260504204549 16 14 9.7 24.1 0.00 0.00 0.00 36 1004.7
20260504203059 17 344 11.3 25.7 0.00 0.00 0.00 35 1004.8
20260504201544 17 11 8.0 30.6 0.00 0.00 0.00 35 1004.3
20260504200045 18 316 12.9 30.6 0.00 0.00 0.00 35 1004.2
20260504194542 18 314 11.3 24.1 0.00 0.00 0.00 35 1003.9
20260504193041 18 321 8.0 20.9 0.00 0.00 0.00 36 1003.8
20260504191540 18 354 8.0 29.0 0.00 0.00 0.00 36 1003.7
20260504190045 18 333 11.3 24.1 0.00 0.00 0.00 34 1003.8
20260504184540 18 32 9.7 27.4 0.00 0.00 0.00 34 1003.6
20260504183039 18 327 9.7 24.1 0.00 0.00 0.00 34 1003.4
20260504181544 18 323 9.7 27.4 0.00 0.00 0.00 36 1003.6
20260504180037 18 295 9.7 20.9 0.00 0.00 0.00 36 1003.5
20260504174537 18 20 14.5 27.4 0.00 0.00 0.00 35 1003.4
20260504173036 18 332 9.7 19.3 0.00 0.00 0.00 35 1003.3
20260504171533 18 32 8.0 19.3 0.00 0.00 0.00 35 1003.2
20260504081522 10 150 0.0 4.8 0.00 0.00 0.00 61 1001.9
20260504044602 10 300 0.0 0.0 0.00 0.00 0.00 59 1004.5
20260504043055 11 300 0.0 0.0 0.00 0.00 0.00 58 1004.8
20260504041547 11 300 0.0 0.0 0.00 0.00 0.00 55 1005.1
20260504040103 12 300 0.0 0.0 0.00 0.00 0.00 54 1005.4
20260504034608 12 300 0.0 0.0 0.00 0.00 0.00 54 1005.5
20260504033041 12 300 0.0 1.6 0.00 0.00 0.00 53 1005.8
20260504031540 12 300 0.0 1.6 0.00 0.00 0.00 52 1005.8
20260504030048 13 300 0.0 0.0 0.00 0.00 0.00 50 1005.9
20260504024539 13 300 0.0 0.0 0.00 0.00 0.00 48 1005.9
20260504023039 14 300 0.0 0.0 0.00 0.00 0.00 47 1005.8
20260504021537 15 300 0.0 0.0 0.00 0.00 0.00 45 1005.9
20260504020035 15 300 0.0 0.0 0.00 0.00 0.00 44 1006.0
20260504014535 16 300 0.0 0.0 0.00 0.00 0.00 41 1006.1
20260504013046 17 300 0.0 1.6 0.00 0.00 0.00 38 1006.1
20260504011533 18 300 0.0 1.6 0.00 0.00 0.00 35 1006.1
20260504010031 20 300 0.0 9.7 0.00 0.00 0.00 31 1006.2
20260504004530 20 240 1.6 9.7 0.00 0.00 0.00 31 1006.4
20260504003027 21 268 3.2 12.9 0.00 0.00 0.00 31 1006.5
20260504001526 21 280 6.4 17.7 0.00 0.00 0.00 30 1006.7
20260504000025 21 297 3.2 12.9 0.00 0.00 0.00 29 1006.7
20260503234526 21 293 4.8 11.3 0.00 0.00 0.00 29 1007.0
20260503233023 22 278 4.8 14.5 0.00 0.00 0.00 29 1007.0
20260503231522 21 257 4.8 17.7 0.00 0.00 0.00 30 1007.1
20260503230020 22 327 1.6 24.1 0.00 0.00 0.00 29 1007.2
20260503224520 22 295 8.0 16.1 0.00 0.00 0.00 29 1007.2
20260503223018 22 252 4.8 11.3 0.00 0.00 0.00 29 1007.2
20260503221515 22 316 4.8 19.3 0.00 0.00 0.00 30 1007.5
20260503220014 22 353 3.2 19.3 0.00 0.00 0.00 30 1007.5
20260503214512 22 5 4.8 14.5 0.00 0.00 0.00 32 1007.6
20260503213010 22 345 8.0 19.3 0.00 0.00 0.00 31 1007.8
20260503211507 22 307 6.4 20.9 0.00 0.00 0.00 32 1008.1
20260503210009 22 302 4.8 14.5 0.00 0.00 0.00 35 1008.1